#timestamp,LO_Frequency,Hit,StdDev 
1525827615.9,286047000.9,N
1525827635.7,286047001.2,N
1525827655.5,286047000.3,N
1525827675.4,286047000.8,N
1525827695.2,286047000.3,N
1525827715.1,286046998.8,N
1525827716.0,286046998.8,N
1525827735.8,286046999.3,N
1525827755.6,286047000.5,N
1525827775.5,286047002.6,N
1525827795.3,286046998.4,N
1525827815.2,286046998.8,N
1525827835.9,286046999.3,N
1525827855.7,286046998.9,N
1525827875.6,286046996.5,N
1525827895.4,286047002.0,N
1525827915.2,286047002.2,N
1525827935.1,286047000.9,N
1525827936.0,286047000.9,N
1525827955.8,286047002.6,N
1525827975.7,286046999.9,N
1525827995.5,286047002.3,N
1525828015.3,286046998.5,N
1525828035.2,286047001.1,N
1525828055.0,286046998.3,N
1525828055.9,286046998.3,N
1525828075.8,286046998.5,N
1525828095.6,286046998.3,N
1525828115.4,286046998.1,N
1525828135.3,286046998.5,N
1525828155.1,286047000.5,N
1525828175.9,286047000.2,N
1525828195.7,286047002.0,N
1525828215.5,286047001.8,N
1525828235.4,286047001.5,N
1525828255.2,286047003.6,N
1525828275.0,286047004.0,N
1525828275.9,286047004.0,N
1525828295.8,286047001.3,N
1525828315.6,286047004.0,N
1525828335.5,286047004.2,N
1525828355.3,286047001.5,N
1525828375.1,286047004.0,N
1525828395.9,286047005.8,N
1525828415.7,286047002.1,N
1525828435.6,286047003.6,N
1525828455.4,286047003.7,N
1525828475.2,286047007.4,Y
1525828495.1,286047004.9,P
1525828496.0,286047004.9,N
1525828515.8,286047005.7,P
1525828535.6,286047004.5,N
1525828555.5,286047004.2,N
1525828575.3,286047003.6,N
1525828595.2,286047005.5,Y
1525828615.0,286047000.7,P
1525828615.9,286047000.7,N
1525828635.7,286046998.1,N
1525828655.6,286047001.3,N
1525828675.4,286047003.6,N
1525828695.3,286047003.6,N
1525828715.1,286047004.3,N
1525828735.8,286047001.8,N
1525828755.7,286047003.8,N
1525828775.5,286047000.5,N
1525828795.4,286047002.6,N
1525828815.2,286047002.6,N
1525828835.0,286047002.3,N
1525828835.9,286047002.3,N
1525828855.8,286046999.8,N
1525828875.6,286047000.0,N
1525828895.4,286046998.2,N
1525828915.3,286047000.2,N
1525828935.1,286047002.0,N
1525828955.9,286047002.2,N
1525828975.7,286047000.1,N
1525828995.5,286047000.1,N
1525829015.4,286047001.9,N
1525829035.2,286046999.8,N
1525829055.1,286046999.7,N
1525829056.0,286046999.7,N
1525829075.8,286047002.5,N
1525829095.6,286047002.3,N
1525829115.5,286047002.1,N
1525829135.3,286047002.3,N
1525829155.1,286047002.2,N
1525829175.9,286047000.0,N
1525829195.7,286046999.9,N
1525829215.6,286046998.4,N
1525829235.4,286046998.6,N
1525829255.2,286047002.7,N
1525829275.1,286047000.9,N
1525829276.0,286047000.9,N
1525829295.8,286046998.1,N
1525829315.7,286047001.1,N
1525829335.5,286047000.1,N
1525829355.3,286047002.3,N
1525829375.2,286047000.7,N
1525829395.0,286046999.2,N
1525829395.9,286046999.2,N
1525829415.7,286046999.5,N
1525829435.6,286046998.3,N
1525829455.4,286046999.0,N
1525829475.3,286047000.5,N
1525829495.1,286046999.1,N
1525829496.0,286046999.1,N
1525829515.8,286046996.5,N
1525829535.7,286046999.5,N
1525829555.5,286046998.6,N
1525829575.4,286047000.5,N
1525829595.2,286046998.7,N
1525829615.0,286047000.5,N
1525829615.9,286047000.5,N
1525829635.8,286047000.7,N
1525829655.6,286047000.5,N
1525829675.4,286047002.4,N
1525829695.3,286047004.2,Y
1525829715.1,286047001.1,P
1525829735.9,286046999.0,N
1525829755.7,286047000.0,N
1525829775.5,286047001.6,N
1525829795.4,286047002.8,N
1525829815.2,286047000.0,N
1525829835.1,286047001.1,N
1525829836.0,286047001.1,N
1525829855.8,286046999.0,N
1525829875.6,286047001.2,N
1525829895.5,286047000.2,N
1525829915.3,286047000.6,N
1525829935.1,286047000.3,N
1525829955.9,286047000.8,N
1525829975.7,286047000.0,N
1525829995.6,286047002.0,N
1525830015.4,286047001.0,N
1525830035.2,286047000.9,N
1525830085.1,286047000.3,E
1525830095.0,286047000.7,N
1525830095.9,286047000.7,P
1525830115.8,286046999.9,P
1525830135.6,286046999.1,N
1525830155.4,286046996.5,Y
1525830175.3,286046996.8,P
1525830195.1,286046997.3,N
1525830215.9,286046997.7,N
1525830235.7,286046999.0,N
1525830255.5,286046999.0,N
1525830275.4,286047000.9,N
1525830295.2,286047001.0,N
1525830315.0,286046996.9,N
1525830315.9,286046996.9,N
1525830335.8,286046999.1,N
1525830355.6,286046996.5,N
1525830375.5,286047001.2,N
1525830395.3,286046996.5,N
1525830415.1,286046998.2,N
1525830435.9,286046998.8,N
1525830455.7,286047001.1,N
1525830475.5,286047000.8,N
1525830495.4,286047001.2,N
1525830515.2,286046998.5,N
1525830535.1,286046999.0,N
1525830536.0,286046999.0,N
1525830555.8,286046999.4,N
1525830575.6,286046996.5,N
1525830595.5,286046999.2,N
1525830615.3,286046995.0,Y
1525830635.2,286046997.0,P
1525830655.9,286046997.5,N
1525830675.7,286046996.7,P
1525830695.6,286046999.1,N
1525830715.4,286046999.2,N
1525830735.2,286046999.1,N
1525830755.1,286046999.1,N
1525830756.0,286046999.1,N
1525830775.8,286046997.8,N
1525830795.7,286046995.9,Y
1525830815.5,286046994.9,P
1525830835.3,286046997.6,N
1525830855.2,286046997.8,N
1525830875.0,286046996.2,N
1525830875.9,286046996.2,Y
1525830895.8,286046997.2,P
1525830915.6,286046999.6,P
1525830935.4,286046994.9,P
1525830955.3,286046995.3,N
1525830975.1,286046993.5,Y
1525830995.9,286046998.9,P
1525831015.7,286046998.9,N
1525831035.5,286046998.2,N
1525831055.4,286046999.3,N
1525831075.2,286046998.7,N
1525831095.1,286046998.1,N
1525831096.0,286046998.1,N
1525831115.8,286047000.7,N
1525831135.6,286047001.2,N
1525831155.5,286047002.8,N
1525831175.3,286047000.7,N
1525831195.1,286046998.8,N
